Siwei Gaojing 2-04

operational
NORAD ID: 62080 Int'l Des: 2024-218 Owner: SIWEI Country: CN
LEOCIRCULARRETROGRADESSO

关于 Siwei Gaojing 2-04

正在加载描述...

实时位置

正在加载3D地球...

即将过境

高度历史

Altitude vs Time

uPlot chart will show altitude changes over time

两行轨道根数

1 62080U 24218C 25342.56606698 .00004742 00000-0 22510-3 0 9995
2 62080 97.4391 347.6397 0001354 109.8157 250.3224 15.19724814 57499
Epoch: Dec 8, 2025 • Age: 12 hours

当前状态

高度 515.6 km
速度 7.61 km/s
星下点 58.20°N, 84.49°E
发射日期 Nov 24, 2024
运行时间 1 years
类型 other

技术详情

分类 Payload
质量 600.00 kg
干质量 500.00 kg
总质量 600.00 kg
长度 0.50 m
直径 0.50 m
跨度 0.50 m
形状 Box
制造商 DFHZ
平台类型 Siwei
阶段状态 In Orbit
所有者/国家 SIWEI/CN

大型星座

Loading constellations...